EZY9VL LDDU-EDDR

Flight info

Callsign EZY9VL
Flight time N/A
Altitude 38000
Route MADOS1W/11 MADOS DCT GEBNI DCT ELTIB DCT VEKEN DCT UMVEG DCT IRBIR DCT KUNOD DCT EDISA
Aircraft A319/M-SDE3FGHIRWY/LB1

Departure

Time 2026-04-28 18:04
Airport Dubrovnik Ruđer Bošković Airport (LDDU)

Arrival

Time N/A
Airport Saarbrücken Airport (EDDR)
Time Latitude Longitude Altitude Speed Heading
2026-04-28 17:44 42.56123 18.26198 534 ft 0 kts 208°
2026-04-28 17:55 42.56124 18.26198 534 ft 1 kts 208°
2026-04-28 17:56 42.56146 18.26214 534 ft 4 kts 208°
2026-04-28 17:56 42.56167 18.26234 534 ft 4 kts 238°
2026-04-28 17:56 42.56172 18.26264 534 ft 3 kts 292°
2026-04-28 17:56 42.56170 18.26270 534 ft 0 kts 296°
2026-04-28 17:58 42.56171 18.26269 534 ft 1 kts 296°
2026-04-28 17:59 42.56180 18.26244 534 ft 5 kts 296°
2026-04-28 17:59 42.56200 18.26190 534 ft 8 kts 297°
2026-04-28 17:59 42.56231 18.26112 534 ft 11 kts 298°
2026-04-28 17:59 42.56274 18.26004 534 ft 14 kts 297°
2026-04-28 18:00 42.56327 18.25870 534 ft 18 kts 298°
2026-04-28 18:00 42.56389 18.25714 534 ft 20 kts 298°
2026-04-28 18:00 42.56462 18.25533 534 ft 23 kts 298°
2026-04-28 18:00 42.56538 18.25341 534 ft 24 kts 298°
2026-04-28 18:01 42.56619 18.25138 534 ft 25 kts 298°
2026-04-28 18:01 42.56701 18.24929 534 ft 25 kts 298°
2026-04-28 18:01 42.56770 18.24756 534 ft 13 kts 298°
2026-04-28 18:01 42.56786 18.24718 534 ft 0 kts 304°
2026-04-28 18:02 42.56787 18.24717 534 ft 1 kts 304°
2026-04-28 18:02 42.56811 18.24687 534 ft 9 kts 328°
2026-04-28 18:02 42.56896 18.24691 533 ft 16 kts 29°
2026-04-28 18:03 42.56927 18.24829 533 ft 9 kts 113°
2026-04-28 18:03 42.56923 18.24837 533 ft 0 kts 116°
2026-04-28 18:03 42.56923 18.24839 533 ft 0 kts 116°
2026-04-28 18:03 42.56904 18.24890 533 ft 25 kts 117°
2026-04-28 18:04 42.56692 18.25424 533 ft 99 kts 118°
2026-04-28 18:04 42.56268 18.26500 534 ft 157 kts 118°
2026-04-28 18:04 42.55724 18.27896 945 ft 168 kts 117°
2026-04-28 18:04 42.55178 18.29294 1603 ft 167 kts 119°
2026-04-28 18:05 42.54607 18.30732 2057 ft 183 kts 119°
2026-04-28 18:05 42.54191 18.31778 2278 ft 198 kts 119°
2026-04-28 18:05 42.53126 18.34060 2719 ft 231 kts 133°
2026-04-28 18:05 42.51866 18.35563 3154 ft 253 kts 149°
2026-04-28 18:06 42.50229 18.36576 3826 ft 263 kts 166°
2026-04-28 18:06 42.48407 18.36897 4752 ft 266 kts 183°
2026-04-28 18:06 42.46587 18.36467 5667 ft 267 kts 200°
2026-04-28 18:06 42.44942 18.35297 6581 ft 270 kts 218°
2026-04-28 18:07 42.43537 18.33590 7431 ft 274 kts 222°
2026-04-28 18:07 42.42057 18.31938 8286 ft 278 kts 217°
2026-04-28 18:07 42.41011 18.30916 8839 ft 282 kts 214°
2026-04-28 18:07 42.39341 18.29488 9697 ft 287 kts 210°
2026-04-28 18:08 42.37562 18.28218 10485 ft 291 kts 206°
2026-04-28 18:08 42.35685 18.27130 11238 ft 298 kts 201°